sat.trackr.live / text

‹ back to catalog

STARLINK-32835

NORAD 63051 · 2025-034Y

PAYLOAD ACTIVE UNKNOWN

§ Identity

Operator
Country
US
Launch date
2025-02-18
Launch site
AFETR
Launch vehicle
Mass (kg)
RCS (m²)

Purposes: comms

External: N2YO · Heavens-Above · Gunter

§ Orbital elements

Epoch: 2026-09-21T21:07:01.391808Z

Period
93.85 min
Inclination
53.1595°
Eccentricity
0.0000855
Mean motion
15.34390656 rev/d
Perigee alt
462.1 km
Apogee alt
463.3 km
Semi-major
6,840.9 km
B*
6.0752e-4
RAAN
75.4296°
Arg perigee
70.4673°
Mean anomaly
289.6422°
Rev number
8,900

§ Raw data

STARLINK-328351 63051U 25034Y   26264.87987722  .00020199  00000+0  60752-3 0  99922 63051  53.1595  75.4296 0000855  70.4673 289.6422 15.34390656 89005

JSON: /api/v1/satellites/63051 · /tle

For live sub-satellite position, see the globe view (requires WebGL).

§ Visibility from observer

Set your observer location to see the next 7 days of passes ≥ 10°. The values pass through the URL so the page stays shareable.

No JS? Fill the form by hand. The geolocation button needs JavaScript.